クリステンセン彗星

C/2005 O2 ( Christensen )

English version
Home page
Total 6,336 html files since Dec. 4, 1995
Updated on January 7, 2006

---------------------------------------------------------------------

・ プロフィール

発見日 2005年7月31日
発見光度 18.2等
発見者 E. J. Christensen (Siding Spring Survey)

・ 軌道要素

T 2005 Sept. 8.4177 TT                                  MPC
q   3.333513             (2000.0)            P               Q
n   0.0085598      Peri.  263.8275      +0.8161430      +0.2762351
a  23.667916       Node   280.7707      +0.4471837      -0.8582116
e   0.859155       Incl.  148.8922      -0.3659745      -0.4326281
P 115
>From 97 observations 2005 July 31-Oct. 10.

・ 星図

・ 光度変化

        m1 = 10.2 + 5 logΔ + 10.0 log r

---------------------------------------------------------------------

軌道要素はM.P.E.C. 2005-T69に掲載されたものです。
星図は StellaNavigator Ver.2.0 for Windows (アストロアーツ 編著 / アスキー出版局刊) で作成したものです。
光度グラフはComet for Windowsで作成したものです。

---------------------------------------------------------------------

Copyright(C) 1995-2008 Seiichi Yoshida (comet@aerith.net). All rights reserved.